[[{"header":{"parameterUnit":"m.s-1","parameterCategory":1,"la1":30.2991,"la2":30.254,"lo1":-89.0895,"lo2":-89.0444,"dy":0.0017,"dx":0.0017,"nx":28,"ny":28,"refTime":"2023-04-16T21:00:00:Z","depth":0,"parameterNumber":2,"parameterNumberName":"U-component_of_WINDS"},"data":[0,0,0,0,0,0,0,0,0,0,0,0,0,0,0,0,0,0,0,0,0,0,0,0,0,0,0,0,0,0,0,0,0,0,0,0,0,0,0,0,0,0,0,0,0,0,0,0,0,0,0,0,0,0,0,0,0,0,1.5721,1.5721,0,1.5701,1.5701,1.5701,1.5665,1.5664,1.5663,1.5663,1.5643,1.5643,1.5643,0,0,0,0,0,0,0,0,0,0,0,0,0,1.5728,1.5728,1.5721,1.5721,1.5721,1.5701,1.5701,1.5701,1.5665,1.5664,1.5663,1.5662,1.5643,1.5643,1.5643,0,0,0,0,0,0,0,0,0,0,0,0,0,1.5719,1.5728,1.5721,1.57,1.5698,1.5701,1.5701,1.5701,1.5665,1.5664,1.5663,1.5662,1.5643,1.5643,1.5643,1.5665,0,0,1.5644,1.5644,0,0,0,0,0,0,0,0,1.5719,1.5718,1.5704,1.5702,1.57,1.5684,1.5696,1.5689,1.5665,1.5678,1.5663,1.5662,1.5658,1.5657,1.5655,1.5664,1.5663,1.5644,1.5644,1.5644,1.5644,0,0,0,0,0,0,0,1.572,1.5719,1.5713,1.5704,1.5701,1.5692,1.569,1.5695,1.5674,1.5677,1.5674,1.5672,1.5656,1.5655,1.5654,1.5663,1.5644,1.5644,1.5644,1.5644,1.5689,1.569,0,0,0,0,0,0,1.5724,1.572,1.5714,1.5713,1.5707,1.5693,1.569,1.569,1.5674,1.567,1.5673,1.567,1.5655,1.5654,1.5654,1.5678,1.5644,1.5644,1.5644,1.5688,1.5689,1.5691,0,0,0,0,0,0,1.5724,1.5723,1.5715,1.5716,1.5714,1.5694,1.5695,1.5691,1.5689,1.5671,1.5667,1.5675,1.5654,1.5653,1.5662,1.5677,1.5644,1.5644,1.5687,1.5688,1.569,1.5727,0,0,0,0,0,0,1.5724,1.5724,1.5732,1.5716,1.5714,1.5724,1.5695,1.5691,1.569,1.5686,1.5672,1.5669,1.5653,1.5662,1.5663,1.5676,1.5644,1.5685,1.5688,1.5689,1.5724,1.573,1.5734,0,0,0,0,0,1.5725,1.5743,1.5732,1.5732,1.5723,1.5725,1.5724,1.5705,1.5691,1.5699,1.5687,1.5669,1.5675,1.5664,1.5664,1.5678,1.5684,1.5687,1.5689,1.5722,1.5729,1.5734,0,0,0,0,0,0,1.5761,1.574,1.5728,1.5742,1.5735,1.5719,1.5728,1.5713,1.571,1.5707,1.5685,1.5682,1.5694,1.5687,1.5674,1.5698,1.5677,1.568,1.5702,1.5708,1.5713,1.5714,1.5645,0,0,0,0,0,1.577,1.5773,1.5755,1.5769,1.5766,1.5748,1.5748,1.5734,1.5727,1.5724,1.5713,1.5706,1.5706,1.5707,1.5706,1.5723,1.572,1.5733,1.5738,1.5742,1.5745,1.5753,1.5759,1.5699,1.5699,1.5699,0,0,1.579,1.5779,1.5782,1.5776,1.5769,1.5773,1.5746,1.575,1.5753,1.5724,1.5732,1.5724,1.5715,1.5729,1.5734,1.5723,1.5761,1.5745,1.5749,1.5749,1.5756,1.5762,1.5767,1.57,1.57,1.57,0,0,1.5828,1.582,1.583,1.5824,1.5815,1.5802,1.5805,1.5791,1.5784,1.5792,1.577,1.5773,1.5774,1.5769,1.5766,1.5802,1.5786,1.5803,1.5828,1.5837,1.5842,1.5846,1.5859,1.5864,1.5805,1.5805,1.5806,0,1.5853,1.5857,1.5838,1.5844,1.5842,1.5817,1.5827,1.5822,1.5813,1.5812,1.58,1.5801,1.5793,1.5805,1.5814,1.5813,1.5815,1.5804,1.5843,1.5847,1.585,1.5862,1.5867,1.5808,1.5807,1.5807,1.5807,0,1.5889,1.5893,1.5903,1.5894,1.5893,1.5902,1.5884,1.5885,1.5872,1.5861,1.587,1.586,1.5856,1.5858,1.5846,1.5868,1.5862,1.5847,1.5825,1.5858,1.5869,1.5874,1.5811,1.581,1.5809,1.5809,0,0,1.5948,1.5929,1.5933,1.5929,1.5917,1.5919,1.5927,1.5924,1.5925,1.592,1.5926,1.5928,1.5913,1.5911,1.5897,1.5905,1.5934,1.5889,1.5888,1.5897,1.5959,1.597,1.5975,1.5924,1.5924,1.5925,1.5959,0,1.5983,1.5994,1.5977,1.5993,1.5996,1.5972,1.5979,1.5972,1.5962,1.5963,1.5953,1.5954,1.5936,1.5934,1.594,1.5929,1.5946,1.5927,1.5929,1.5929,1.5931,1.5981,1.5993,1.6026,1.5963,1.5964,1.5965,0,1.6025,1.6021,1.6037,1.6024,1.6024,1.6031,1.6027,1.6028,1.602,1.6013,1.601,1.5994,1.6001,1.598,1.5989,1.5976,1.5976,1.5971,1.5972,1.5971,1.5948,1.5981,1.6036,1.604,1.5971,1.5971,1.597,0,1.6066,1.6065,1.6074,1.6072,1.6057,1.6062,1.6056,1.6047,1.6046,1.6043,1.6042,1.604,1.6039,1.6037,1.6021,1.6008,1.6032,1.6011,1.6026,1.6027,1.6032,1.6031,1.6087,1.6033,1.6033,1.6033,1.6032,0,1.6106,1.6116,1.6093,1.6098,1.611,1.609,1.6102,1.6094,1.6086,1.609,1.607,1.6074,1.6053,1.6054,1.6042,1.6051,1.6051,1.6045,1.6042,1.6047,1.6047,1.6046,1.6043,1.6034,1.6034,1.6033,1.6033,0,1.6153,1.6138,1.6146,1.6132,1.6128,1.6137,1.6125,1.6129,1.6119,1.6124,1.6124,1.6107,1.6108,1.6093,1.6091,1.6083,1.6097,1.609,1.61,1.6097,1.6114,1.6112,1.6169,1.6176,1.6118,1.6119,1.6119,0,1.6179,1.6187,1.6173,1.6174,1.6169,1.6171,1.617,1.6152,1.6152,1.6144,1.615,1.615,1.6148,1.6151,1.6139,1.6138,1.613,1.615,1.613,1.6134,1.613,1.6129,1.613,1.6154,1.6155,1.6155,1.6156,0,1.6227,1.622,1.6219,1.6217,1.6216,1.6213,1.6209,1.6211,1.6191,1.6192,1.6193,1.6192,1.619,1.619,1.6187,1.6181,1.6165,1.6163,1.6166,1.6171,1.6176,1.6173,1.6111,1.6161,1.6161,1.616,1.616,1.616,1.6265,1.627,1.6262,1.6262,1.6257,1.6253,1.6257,1.6247,1.6247,1.6244,1.6234,1.6237,1.6229,1.6223,1.6218,1.622,1.621,1.6216,1.6217,1.6218,1.6221,1.6177,1.622,1.622,1.6219,1.6219,1.6219,0,1.6311,1.6305,1.6305,1.63,1.63,1.6286,1.6281,1.6282,1.6285,1.6279,1.6278,1.6279,1.6279,1.6267,1.6266,1.627,1.6263,1.627,1.6269,1.6268,1.623,1.6227,1.6276,1.6276,1.6276,1.6276,1.6276,1.6276,1.6336,1.6344,1.6336,1.6342,1.6335,1.6338,1.6336,1.6333,1.6328,1.633,1.633,1.6322,1.6314,1.6312,1.6311,1.6308,1.6308,1.6318,1.6312,1.6276,1.6271,1.6266,1.6263,1.6318,1.6318,1.635,1.635,1.635]},{"header":{"parameterUnit":"m.s-1","parameterCategory":1,"la1":30.2991,"la2":30.254,"lo1":-89.0895,"lo2":-89.0444,"dy":0.0017,"dx":0.0017,"nx":28,"ny":28,"refTime":"2023-04-16T21:00:00:Z","depth":0,"parameterNumber":3,"parameterNumberName":"V-component_of_WINDS"},"data":[0,0,0,0,0,0,0,0,0,0,0,0,0,0,0,0,0,0,0,0,0,0,0,0,0,0,0,0,0,0,0,0,0,0,0,0,0,0,0,0,0,0,0,0,0,0,0,0,0,0,0,0,0,0,0,0,0,0,-5.5282,-5.5285,0,-5.5518,-5.5521,-5.5523,-5.5479,-5.5475,-5.5471,-5.5467,-5.5712,-5.5722,-5.5732,0,0,0,0,0,0,0,0,0,0,0,0,0,-5.4797,-5.4806,-5.5282,-5.5285,-5.5288,-5.5518,-5.5521,-5.5524,-5.548,-5.5475,-5.547,-5.5465,-5.5708,-5.572,-5.5733,0,0,0,0,0,0,0,0,0,0,0,0,0,-5.5018,-5.4809,-5.5281,-5.5293,-5.5297,-5.5517,-5.5521,-5.5525,-5.5481,-5.5475,-5.5468,-5.5462,-5.5704,-5.5719,-5.5735,-5.5959,0,0,-5.5783,-5.579,0,0,0,0,0,0,0,0,-5.5005,-5.5035,-5.5289,-5.5293,-5.5297,-5.5463,-5.5439,-5.5671,-5.5483,-5.5411,-5.5467,-5.5459,-5.5634,-5.5655,-5.5713,-5.597,-5.5981,-5.5784,-5.5794,-5.58,-5.5805,0,0,0,0,0,0,0,-5.499,-5.5025,-5.5375,-5.5292,-5.5298,-5.5288,-5.5313,-5.5483,-5.5556,-5.5417,-5.5414,-5.5443,-5.5635,-5.5698,-5.5719,-5.5984,-5.5784,-5.5798,-5.5807,-5.5813,-5.6439,-5.6446,0,0,0,0,0,0,-5.497,-5.5013,-5.5368,-5.5382,-5.5132,-5.5302,-5.5329,-5.5416,-5.5553,-5.5568,-5.5448,-5.544,-5.5675,-5.5701,-5.5727,-5.6001,-5.58,-5.5815,-5.5824,-5.6432,-5.6441,-5.6449,0,0,0,0,0,0,-5.496,-5.5002,-5.5358,-5.5197,-5.5242,-5.5317,-5.5415,-5.5424,-5.5487,-5.5577,-5.559,-5.5499,-5.5671,-5.5705,-5.5902,-5.6009,-5.5822,-5.5836,-5.6424,-5.6435,-5.6445,-5.6549,0,0,0,0,0,0,-5.4946,-5.4999,-5.5084,-5.5199,-5.525,-5.5529,-5.5421,-5.5433,-5.5514,-5.5506,-5.5628,-5.5643,-5.5668,-5.5879,-5.5918,-5.6027,-5.5849,-5.6414,-5.6429,-5.6441,-5.6537,-5.6562,-5.6584,0,0,0,0,0,-5.4929,-5.5104,-5.5089,-5.5132,-5.5358,-5.5535,-5.5564,-5.559,-5.5523,-5.561,-5.5668,-5.5639,-5.599,-5.5899,-5.5943,-5.6059,-5.6408,-5.6425,-5.644,-5.6526,-5.6557,-5.6584,0,0,0,0,0,0,-5.5001,-5.5119,-5.5103,-5.5321,-5.5418,-5.5527,-5.5638,-5.5621,-5.574,-5.5728,-5.5755,-5.5783,-5.5984,-5.604,-5.5937,-5.6284,-5.619,-5.6215,-5.624,-5.6271,-5.6294,-5.6278,-5.5862,0,0,0,0,0,-5.5042,-5.5174,-5.5271,-5.5453,-5.5503,-5.5562,-5.564,-5.5651,-5.5753,-5.5794,-5.5866,-5.5967,-5.61,-5.6188,-5.6315,-5.6543,-5.6571,-5.6644,-5.6668,-5.6687,-5.671,-5.6838,-5.6872,-5.6502,-5.6502,-5.6501,0,0,-5.5128,-5.5209,-5.5291,-5.547,-5.5546,-5.5685,-5.5597,-5.5746,-5.585,-5.5817,-5.6008,-5.6064,-5.6179,-5.6393,-5.6491,-5.6446,-5.6818,-5.6708,-5.6722,-5.6736,-5.6858,-5.6893,-5.6924,-5.6513,-5.6511,-5.6509,0,0,-5.5357,-5.543,-5.5592,-5.567,-5.5787,-5.5825,-5.5863,-5.5975,-5.6011,-5.6203,-5.6182,-5.6305,-5.6533,-5.6617,-5.6689,-5.695,-5.6929,-5.699,-5.7116,-5.724,-5.7269,-5.7295,-5.7391,-5.7425,-5.7012,-5.7012,-5.7012,0,-5.5451,-5.5657,-5.5677,-5.5829,-5.591,-5.5885,-5.605,-5.6125,-5.6278,-5.6335,-5.6282,-5.6569,-5.6644,-5.6879,-5.6942,-5.7,-5.7048,-5.6978,-5.7263,-5.7289,-5.7314,-5.7406,-5.7442,-5.7019,-5.7018,-5.7018,-5.7017,0,-5.5767,-5.591,-5.6027,-5.6175,-5.6268,-5.6425,-5.6471,-5.6563,-5.6565,-5.661,-5.6806,-5.6895,-5.7041,-5.7097,-5.7101,-5.7333,-5.7302,-5.7256,-5.7163,-5.7356,-5.7443,-5.7478,-5.7029,-5.7027,-5.7025,-5.7023,0,0,-5.6051,-5.6207,-5.625,-5.6318,-5.6444,-5.6556,-5.6713,-5.6855,-5.6935,-5.704,-5.7175,-5.7368,-5.7327,-5.7409,-5.7422,-5.753,-5.7734,-5.7471,-5.7474,-5.752,-5.7999,-5.8036,-5.8076,-5.7719,-5.7726,-5.7731,-5.799,0,-5.6294,-5.6571,-5.6594,-5.6843,-5.6978,-5.6955,-5.7093,-5.7186,-5.7231,-5.7352,-5.7402,-5.754,-5.7473,-5.7523,-5.7629,-5.7687,-5.7832,-5.7668,-5.7847,-5.7854,-5.7823,-5.8121,-5.816,-5.8401,-5.8024,-5.803,-5.8034,0,-5.6616,-5.6731,-5.6994,-5.7103,-5.716,-5.7283,-5.7416,-5.7531,-5.7637,-5.7662,-5.7754,-5.7752,-5.7915,-5.7813,-5.804,-5.7928,-5.8002,-5.8042,-5.8052,-5.8073,-5.7958,-5.8153,-5.8477,-5.8515,-5.8087,-5.8083,-5.8079,0,-5.6801,-5.7021,-5.7207,-5.7265,-5.7396,-5.7484,-5.7542,-5.7641,-5.7726,-5.7842,-5.7898,-5.8031,-5.8105,-5.8209,-5.8244,-5.8166,-5.8471,-5.8371,-5.8499,-5.8499,-5.8567,-5.8563,-5.8912,-5.8609,-5.8608,-5.8608,-5.8607,0,-5.7072,-5.7235,-5.7292,-5.7408,-5.759,-5.7614,-5.7794,-5.7848,-5.7937,-5.8063,-5.8051,-5.817,-5.8208,-5.8334,-5.8362,-5.8547,-5.858,-5.8606,-5.8613,-5.861,-5.8607,-5.8662,-5.8648,-5.8617,-5.8615,-5.8613,-5.8612,0,-5.7311,-5.7356,-5.7558,-5.7665,-5.7696,-5.7826,-5.7918,-5.803,-5.8071,-5.8232,-5.8271,-5.8338,-5.8486,-5.853,-5.8708,-5.8727,-5.8945,-5.8934,-5.891,-5.8912,-5.9039,-5.9028,-5.9438,-5.9494,-5.915,-5.9153,-5.9156,0,-5.7484,-5.7609,-5.7729,-5.7812,-5.7874,-5.8009,-5.8095,-5.8123,-5.8214,-5.8344,-5.8441,-5.8586,-5.8705,-5.8942,-5.9008,-5.9144,-5.9139,-5.9273,-5.916,-5.9154,-5.9146,-5.914,-5.9154,-5.9296,-5.93,-5.9302,-5.9305,0,-5.7787,-5.7802,-5.7926,-5.8059,-5.8161,-5.8267,-5.8369,-5.8438,-5.8482,-5.8584,-5.8735,-5.8827,-5.9008,-5.9154,-5.9292,-5.9354,-5.9339,-5.9339,-5.9377,-5.9378,-5.936,-5.9375,-5.8973,-5.9331,-5.9328,-5.9326,-5.9325,-5.9324,-5.8001,-5.8111,-5.8213,-5.8352,-5.8431,-5.8527,-5.8638,-5.8693,-5.8819,-5.8969,-5.8978,-5.9142,-5.9246,-5.943,-5.9498,-5.9628,-5.9589,-5.9643,-5.9657,-5.9671,-5.9683,-5.9336,-5.9653,-5.9652,-5.9652,-5.9651,-5.965,0,-5.8306,-5.837,-5.8497,-5.864,-5.875,-5.8722,-5.8834,-5.8928,-5.9072,-5.9169,-5.9286,-5.946,-5.9602,-5.9678,-5.9819,-5.9908,-5.9905,-5.9945,-5.9941,-5.9956,-5.9708,-5.9663,-5.9946,-5.9946,-5.9946,-5.9945,-5.9945,-5.9945,-5.8478,-5.8665,-5.8693,-5.8919,-5.8982,-5.9142,-5.9209,-5.9297,-5.9375,-5.957,-5.9687,-5.9735,-5.9825,-5.9972,-6.0102,-6.012,-6.0175,-6.022,-6.0235,-6.0003,-5.9973,-5.9944,-5.9903,-6.0231,-6.0231,-6.0473,-6.0475,-6.0477]}]]